Location: Turtle Rock Observatory
(36.6913°N, 81.9708°W)
Time: 00:19:46
(UTC-05:00)

TITAN 4B R/B - Visible Passes

Search period start: 28 February 2015 00:00
Search period end: 10 March 2015 01:00
Orbit: 466 x 656 km, 57.0° (Epoch: 04 February)

Date Brightness Start Highest point End Pass type
(mag) Time Alt. Az. Time Alt. Az. Time Alt. Az.
28 Feb 3.2 05:02:48 23° NNW 05:02:48 23° NNW 05:05:37 10° NNE visible
01 Mar 3.6 05:01:13 19° NNW 05:01:13 19° NNW 05:03:33 10° NNE visible
02 Mar 3.8 04:59:33 15° NNW 04:59:33 15° NNW 05:01:24 10° N visible
03 Mar 4.0 04:57:50 12° NNW 04:57:50 12° NNW 04:59:05 10° N visible
04 Mar 4.2 04:56:03 10° NNW 04:56:03 10° NNW 04:56:14 10° NNW visible
